{"data":{"norad_id":67133,"epoch":"2026-09-20T06:10:06.267072Z","epoch_age_seconds":127100,"freshness":"FRESH","line1":"1 67133U 25301A   26263.25701698  .00001621  00000+0  24163-3 0  9996","line2":"2 67133  51.9014 275.2490 0000647  64.5556 295.5474 14.79932814 42683","mean_motion":14.79932814,"eccentricity":6.47e-5,"inclination_deg":51.9014,"raan_deg":275.249,"arg_perigee_deg":64.5556,"mean_anomaly_deg":295.5474,"bstar":0.00024163,"rev_number":4268,"period_min":97.301714400665,"perigee_km":629.08281987387,"apogee_km":629.98961278806,"semimajor_km":7007.673216331,"source":"CELESTRAK","updated_at":"2026-09-21T09:00:16.453404Z"}}